Zurück zum Katalog

STARLINK-11159

AktivKommunikationVLEO
NORAD 60905·PAYLOAD·🇺🇸 United States

Gestartet Aug 31, 2024 von Cape Canaveral Space Force Station

Loading…

Nächste Überflüge (nächste 24 Stunden)

TLE

AktuellSource: CelesTrak SupGP

Epoche: Sep 14, 2026, 14:29 UTC

1 60905C 24154C   26257.60395833  .00022476  00000+0  18519-3 0  2579
2 60905  53.1571 280.2940 0001014  95.2705 181.9199 15.69691083    10

Verfolge STARLINK-11159 in Echtzeit mit AllMySat

Download on the App Store